Torna al catalogo

STARLINK-34152

AttivoComunicazioniVLEO
NORAD 64000·PAYLOAD·🇺🇸 United States

Lanciato May 14, 2025 da Cape Canaveral Space Force Station

Loading…

Prossimi Passaggi (prossime 24 ore)

TLE

AggiornatoSource: CelesTrak SupGP

Epoca: Sep 14, 2026, 23:12 UTC

1 64000C 25101G   26257.96715278 -.00013508  00000+0 -48920-3 0  2577
2 64000  43.0039   8.9386 0001626 277.6599  86.5951 15.27588504    15

Traccia STARLINK-34152 in tempo reale con AllMySat

Download on the App Store